Regional Weather Roundup
Issued by NWS

Home | Current Version | Previous Version | Text Only | Print | Product List | Glossary Off
Versions: 1 2 3 4 5 6 7 8 9 10 11 12 13 14 15 16 17 18 19 20 21 22 23 24 25 26 27 28 29 30 31 32 33 34 35 36 37 38 39 40 41 42 43 44 45 46 47 48 49 50

000
ASUS45 KCYS 261810
RWRWY

WYOMING REGIONAL WEATHER ROUNDUP
NATIONAL WEATHER SERVICE CHEYENNE WY
1200 PM MDT MON SEP 26 2016

NOTE:  "FAIR" INDICATES FEW OR NO CLOUDS BELOW 12,000 FEET
WITH NO SIGNIFICANT WEATHER AND/OR OBSTRUCTIONS TO VISIBILITY.

WYZ001-261900-
YELLOWSTONE NATIONAL PARK

CITY           SKY/WX    TMP DP  RH WIND       PRES   REMARKS
LK YELLOWSTONE   N/A     49  40  71 SE5       30.56F
6HR MIN TEMP:  28; 6HR MAX TEMP:  49;

W YELLOWSTONE  NOT AVBL

$$
WYZ002>013-054>058-071-098>099-261900-
NORTHERN WYOMING

CITY           SKY/WX    TMP DP  RH WIND       PRES   REMARKS
JACKSON        SUNNY     54  39  58 CALM      30.51F
CODY           FAIR      65  43  44 SE6       30.39F
GREYBULL       FAIR      60  46  59 SE6       30.37F
6HR MIN TEMP:  41; 6HR MAX TEMP:  60;

WORLAND        FAIR      62  44  51 VRB3      30.37F
6HR MIN TEMP:  40; 6HR MAX TEMP:  62;

SHERIDAN       FAIR      68  45  43 NW8G17    30.34F
6HR MIN TEMP:  53; 6HR MAX TEMP:  69;

BUFFALO        FAIR      65  39  38 VRB5      30.38F
6HR MIN TEMP:  48; 6HR MAX TEMP:  65;

GILLETTE       FAIR      63  43  48 NW16G22   30.34F
6HR MIN TEMP:  46; 6HR MAX TEMP:  64;

HULETT         FAIR      63  41  45 NW9       30.34F
NEWCASTLE      FAIR      61  37  41 NW10      30.34F

$$
WYZ014>020-022>026-101>103-261900-
CENTRAL WYOMING

CITY           SKY/WX    TMP DP  RH WIND       PRES   REMARKS
BIG PINEY      FAIR      60  36  40 CALM      30.49F
6HR MIN TEMP:  33; 6HR MAX TEMP:  60;

PINEDALE       FAIR      59  34  38 N5        30.50F
DUBOIS         FAIR      63  37  39 E10       30.45F
LANDER         FAIR      61  41  47 SE3       30.41F
6HR MIN TEMP:  39; 6HR MAX TEMP:  61;

RIVERTON       FAIR      58  43  57 CALM      30.43F
6HR MIN TEMP:  40; 6HR MAX TEMP:  58;

CASPER         FAIR      65  40  39 SW12      30.40F
6HR MIN TEMP:  33; 6HR MAX TEMP:  65;

DOUGLAS        FAIR      67  38  34 NW8       30.39F
6HR MIN TEMP:  36; 6HR MAX TEMP:  67;


$$
WYZ021-027>030-104>119-261900-
SOUTHERN WYOMING

CITY           SKY/WX    TMP DP  RH WIND       PRES   REMARKS
EVANSTON       FAIR      60  36  40 NW6       30.51F
6HR MIN TEMP:  42; 6HR MAX TEMP:  60;

FORT BRIDGER   FAIR      62  38  40 W5        30.52F
ROCK SPRINGS   FAIR      58  38  47 S5        30.49F
6HR MIN TEMP:  42; 6HR MAX TEMP:  58;

DIXON          FAIR      60  38  44 W3        30.52F
RAWLINS        FAIR      61  35  37 W7        30.49F
6HR MIN TEMP:  30; 6HR MAX TEMP:  61;

SARATOGA       FAIR      61  34  36 NW8G21    30.50F
LARAMIE        FAIR      59  31  34 VRB6      30.49S
6HR MIN TEMP:  32; 6HR MAX TEMP:  60;

CHEYENNE       FAIR      67  34  29 N14G21    30.42F
6HR MIN TEMP:  40; 6HR MAX TEMP:  67;

TORRINGTON     FAIR      69  35  28 NW10G17   30.34F
6HR MIN TEMP:  36; 6HR MAX TEMP:  70;

PINE BLUFFS    FAIR      68  32  26 N9G23     30.39F

$$



USA.gov is the U.S. government's official web portal to all federal, state and local government web resources and services.